This is the latest recevied weather packets stored in our database for station/object KC1TWD. If no packets are shown the sender has not sent any weather packets the latest 10 day(s).
| Time | Temp. | Humidity | Pressure | Rain* | Wind** | Luminosity | Snow |
|---|---|---|---|---|---|---|---|
| 1777822570 | 8.33° C | 64% | 1006.9 hPa | 0 mm | - | - | - |
| 1777822267 | 8.33° C | 67% | 1007.2 hPa | 0 mm | - | - | - |
| 1777821965 | 7.78° C | 65% | 1007 hPa | 0 mm | - | - | - |
| 1777821663 | 7.78° C | 65% | 1007.1 hPa | 0 mm | - | - | - |
| 1777821361 | 7.78° C | 69% | 1007.1 hPa | 0 mm | - | - | - |
| 1777821057 | 7.78° C | 69% | 1007.2 hPa | 0 mm | - | - | - |
| 1777820753 | 7.78° C | 69% | 1007.2 hPa | 0 mm | - | - | - |
| 1777820450 | 7.78° C | 71% | 1007.3 hPa | 0 mm | - | - | - |
| 1777820148 | 7.22° C | 69% | 1007.3 hPa | 0 mm | - | - | - |
| 1777819844 | 7.78° C | 70% | 1007.2 hPa | 0 mm | - | - | - |
| 1777819542 | 7.78° C | 70% | 1007.4 hPa | 0 mm | - | - | - |
| 1777819239 | 7.22° C | 73% | 1007.2 hPa | 0 mm | - | - | - |
| 1777818936 | 7.22° C | 74% | 1007.4 hPa | 0 mm | - | - | - |
| 1777818632 | 7.22° C | 72% | 1007.3 hPa | 0 mm | - | - | - |
| 1777818330 | 7.22° C | 74% | 1007.3 hPa | 0 mm | - | - | - |
| 1777818026 | 7.22° C | 75% | 1007.4 hPa | 0 mm | - | - | - |
| 1777817723 | 6.67° C | 77% | 1007.4 hPa | 0 mm | - | - | - |
| 1777817420 | 6.67° C | 74% | 1007.3 hPa | 0 mm | - | - | - |
| 1777817116 | 6.67° C | 77% | 1007.4 hPa | 0 mm | - | - | - |
| 1777816814 | 6.67° C | 77% | 1007.5 hPa | 0 mm | - | - | - |
| 1777816511 | 6.67° C | 78% | 1007.5 hPa | 0 mm | - | - | - |
| 1777816208 | 6.67° C | 77% | 1007.4 hPa | 0 mm | - | - | - |
| 1777815906 | 6.11° C | 74% | 1007.3 hPa | 0 mm | - | - | - |
| 1777815603 | 6.11° C | 78% | 1007.6 hPa | 0 mm | - | - | - |
| 1777815300 | 6.11° C | 79% | 1007.7 hPa | 0 mm | - | - | - |
* Rain latest hour (hover to see other rain measurements)
** Current wind speed in m/s (hover to see current wind gust speed)